Trollhattan Vanersborg current weather conditions

sailwx.info

Wind from 260 at 5 knots

Air temperature 3.0° C
Visibility: greater than 5.4 NM
Dewpoint -5.0° C

Last reported at 2017-Mar-23 18:20 UTC.
Time now 2017-Mar-23 20:25 UTC

Location: N 58°19' E 012°21'.
View on Google Maps.

See reports from other nearby stations

  
Tides and Currents Weather Stations Pressure Air Temp Water Temp Dewpoint Dewpoint Depression Visibility Wind Speed Wind Dir Waves Ship Positions
date/time (UTC)wind fromknots sea level pressurealtimeterstation pressurevisibilityair tempwater tempwave heightnotes
2017-Mar-23 19:20 210 4 5.4 2.0
2017-Mar-23 18:50 260 6 5.4 3.0
2017-Mar-23 18:20 260 5 5.4 3.0
2017-Mar-23 17:50 270 6 5.4 4.0
2017-Mar-23 17:20 270 7 5.4 5.0
2017-Mar-23 16:20 260 9 5.4 6.0
2017-Mar-23 15:50 250 9 5.4 7.0
2017-Mar-23 15:20 270 11 5.4 7.0
2017-Mar-23 14:50 250 7 5.4 8.0
2017-Mar-23 14:20 250 7 5.4 8.0
2017-Mar-23 13:50 270 7 5.4 8.0
2017-Mar-23 13:20 290 6 5.4 8.0
2017-Mar-23 12:50 260 7 5.4 8.0
2017-Mar-23 12:20 280 5 5.4 8.0
2017-Mar-23 11:50 280 7 5.4 7.0
2017-Mar-23 11:20 260 6 5.4 7.0
2017-Mar-23 10:50 260 12 5.4 7.0
2017-Mar-23 10:20 260 9 5.4 6.0
2017-Mar-23 09:50 280 6 5.4 6.0
2017-Mar-23 09:20 310 5 5.4 5.0
2017-Mar-23 08:50 330 6 5.4 4.0
2017-Mar-23 08:20 5.4 4.0
2017-Mar-23 07:50 130 4 5.4 2.0
2017-Mar-23 07:20 160 2 5.4 1.0
2017-Mar-23 06:50 140 4 5.4-0.0
2017-Mar-23 06:20 140 4 5.4-0.0
2017-Mar-23 05:50 160 4 5.4-3.0 Patches of fog.
2017-Mar-23 05:20 160 4 5.4-3.0 Patches of fog.
2017-Mar-23 04:50 160 5 0.5-3.0 Fog.
2017-Mar-22 20:20 210 5 5.4 3.0
2017-Mar-22 19:50 230 7 5.4 4.0
2017-Mar-22 19:20 230 7 5.4 4.0
2017-Mar-22 18:50 230 7 5.4 4.0
2017-Mar-22 18:20 230 7 5.4 4.0
2017-Mar-22 17:50 240 9 5.4 5.0
2017-Mar-22 17:20 240 11 5.4 6.0
2017-Mar-22 16:50 240 11 5.4 6.0
2017-Mar-22 16:20 240 13 5.4 7.0
2017-Mar-22 15:50 250 11 5.4 7.0
2017-Mar-22 15:20 260 13 5.4 6.0
2017-Mar-22 14:50 230 18 5.4 6.0
2017-Mar-22 14:20 240 14 gusting 26 5.4 6.0
2017-Mar-22 13:50 240 14 gusting 26 5.4 7.0
2017-Mar-22 13:20 260 18 5.4 7.0
2017-Mar-22 12:50 240 19 gusting 28 5.4 7.0
2017-Mar-22 12:20 230 20 gusting 31 5.4 7.0
2017-Mar-22 11:50 240 18 gusting 29 5.4 8.0
2017-Mar-22 11:20 240 13 5.4 6.0
2017-Mar-22 10:50 250 14 5.4 7.0
2017-Mar-22 10:20 260 18 5.4 6.0
2017-Mar-22 09:50 260 15 5.4 7.0
2017-Mar-22 09:20 240 15 5.4 6.0
2017-Mar-22 08:50 240 15 5.4 6.0
2017-Mar-22 08:20 250 15 5.4 6.0
2017-Mar-22 07:50 260 17 5.4 5.0
2017-Mar-22 07:20 250 19 gusting 29 5.4 5.0
2017-Mar-22 06:50 250 17 5.4 5.0
2017-Mar-22 06:20 260 18 5.4 5.0
2017-Mar-22 05:50 240 14 5.4 4.0
2017-Mar-22 05:20 240 15 5.4 4.0
2017-Mar-22 04:50 240 14 gusting 27 5.4 4.0
2017-Mar-21 20:20 240 15 gusting 26 5.4 4.0